Вернуться в каталог

SAUDICOMSAT 7

АктивенСвязьSSO
NORAD 31119·PAYLOAD·🇸🇦 Saudi Arabia

Запущен Apr 17, 2007 с Baikonur Cosmodrome

Loading…

Ближайшие Пролёты (ближайшие 24 часа)

TLE

СвежийSource: Space-Track

Эпоха: Sep 14, 2026, 04:10 UTC

1 31119U 07012C   26257.17388747  .00000399  00000-0  80646-4 0  9991
2 31119  98.3891 233.1790 0054304 277.9581  81.5461 14.66199794 35475

Отслеживайте SAUDICOMSAT 7 в реальном времени с AllMySat

Download on the App Store